Location: Sulphur Springs (historical)
(38.1246°N, 122.1900°W)
Time: 04:53:13
(UTC+00:00)

Cosmos 2369 - Pass Details

Date: 29 October 2020
Orbit: 841 x 854 km, 71.0° (Epoch: 29 November)

Event Time Altitude Azimuth Distance (km) Brightness Sun altitude
Exits shadow 12:08:24 23° 356° (N) 1,735 5.3 -28.8°
Maximum altitude 12:11:49 53° 64° (ENE) 1,027 4.3 -28.1°
Drops below altitude 10° 12:17:19 10° 141° (SE) 2,450 6.5 -27.0°
Sets 12:19:48 0° 146° (SE) 3,380 7.2 -26.5°
